Content
SEND FEEDBACK

Daily
Averages
Monthly
Summary
United States of America

UNION SPRINGS, ALABAMA


Home > North America > United States > Alabama
Elevation: 440 feet     Latitude: 32 01N     Longitude: 085 45W

WEATHER
 
SELECT A DAY
Number of Records: 181,830;   Date Range: 1/3/95 - 10/20/14
 
SHARE

PRINT THIS DATA

[ ← Previous Day ]
WEATHER ALMANAC - MAY 13, 2014
[ Next Day → ]
[ °C ]   °F
Weather ElementAverageHighLow
Temperature70.9 °F88 °F (2:53 pm)60.1 °F (4:53 am)
Dewpoint62.8 °F70 °F (9:53 am)57.9 °F (4:53 am)
Humidity78.5 %96 % (2:41 am)44 % (3:53 pm)
Barometer30.08 in30.13 in (8:53 am)30.02 in (5:53 pm)
Wind Speed2.4 mph8.1 mph (3:53 pm)
Weather ElementAverage
Visibility6.9 mi
Wind DirectionNE (47.7 °)

Weather ElementTotal
Precipitation---
Cooling Degree Days9.1 (Base 65)
Growing Degree Days24.1 (Base 50)
Averaged from 31 records on May 13, 2014
WEATHER CONDITIONS BREAKOUT
WIND DIRECTION BREAKOUT
WEATHER BY HOUR - MAY 13, 2014
[ °C ]   °F
Local TimeTemperatureDewpointHumidityBarometerVisibilityWind DirectionWind SpeedGust SpeedPrecipitationEventsConditions
1:50 AM62.6 °F60.8 °F94 %30.10 in2.0 miCalmClear
1:53 AM63.0 °F61.0 °F93 %30.08 in1.5 miCalmClear
1:56 AM63.0 °F61.0 °F93 %30.10 in1.0 miCalmClear
2:05 AM63.0 °F61.0 °F93 %30.09 in1.5 miCalmClear
2:07 AM63.0 °F61.0 °F93 %30.09 in2.5 miCalmClear
2:34 AM63.0 °F61.0 °F93 %30.09 in2.0 miCalmClear
2:41 AM62.1 °F61.0 °F96 %30.09 in1.5 miCalmClear
2:44 AM62.1 °F60.1 °F93 %30.09 in1.0 miCalmClear
2:53 AM62.1 °F60.1 °F93 %30.08 in1.8 miCalmClear
2:55 AM62.1 °F60.1 °F93 %30.09 in4.0 miCalmClear
3:03 AM62.1 °F60.1 °F93 %30.09 in9.0 miCalmScattered Clouds
3:53 AM63.0 °F60.1 °F90 %30.09 in10.0 miCalmClear
4:53 AM60.1 °F57.9 °F93 %30.09 in2.5 miCalmClear
5:05 AM61.0 °F59.0 °F93 %30.10 in9.0 miEast (100°)3.5 mphClear
5:53 AM62.1 °F60.1 °F93 %30.10 in8.0 miNNE (30°)3.5 mphClear
6:53 AM64.9 °F63.0 °F93 %30.12 in7.0 miCalmPartly Cloudy
8:53 AM75.9 °F69.1 °F79 %30.13 in10.0 miSSE (150°)6.9 mphClear
9:53 AM79.0 °F70.0 °F74 %30.13 in10.0 miSSE (160°)5.8 mphClear
11:53 AM84.0 °F66.9 °F56 %30.13 in10.0 miVariable4.6 mphPartly Cloudy
12:53 PM86.0 °F66.9 °F53 %30.11 in10.0 miVariable5.8 mphPartly Cloudy
1:53 PM87.1 °F66.9 °F51 %30.09 in10.0 miSSW (200°)6.9 mphScattered Clouds
2:53 PM88.0 °F64.9 °F46 %30.06 in10.0 miSE (140°)4.6 mphPartly Cloudy
3:53 PM87.1 °F63.0 °F44 %30.04 in10.0 miSouth (190°)8.1 mphClear
4:53 PM87.1 °F64.0 °F46 %30.03 in10.0 miSSE (160°)8.1 mphClear
5:53 PM84.9 °F62.1 °F46 %30.02 in10.0 miSE (130°)8.1 mphClear
6:53 PM81.0 °F63.0 °F54 %30.03 in10.0 miSE (140°)3.5 mphClear
7:53 PM75.9 °F64.0 °F67 %30.04 in10.0 miEast (80°)3.5 mphClear
8:53 PM73.0 °F66.0 °F79 %30.05 in10.0 miCalmClear
9:53 PM71.1 °F64.9 °F81 %30.07 in10.0 miCalmClear
10:53 PM70.0 °F64.0 °F81 %30.07 in10.0 miCalmClear
11:53 PM68.0 °F64.0 °F87 %30.08 in10.0 miCalmClear
Hourly data recorded from KTOI, located miles away from Union Springs, Alabama







STORIES FROM OUR PARTNERS